Home > Weather > Bolton > Past weeks

Flag for United Kingdom Past Weather in Bolton, England, United Kingdom — Yesterday and Last 2 Weeks

Now
63 °F

Scattered clouds.


Feels Like: 63 °F
Forecast: 45 / 67 °F
Wind: 3 mph from North

Location: Manchester Airport

Current Time: May 28, 2016 at 12:59:31 PM

Latest Report: May 28, 2016 at 12:20 PM


Visibility: N/A

Pressure: 30.01 "Hg

Humidity: 59%

Dew Point: 48 °F

Location of BoltonLocation

Past Weather in Bolton — Graph

°F

Bolton Temperature Yesterday

Maximum temperature yesterday: 66 °F (at 4:20 PM)
Minimum temperature yesterday: 50 °F (at 4:20 AM)
Average temperature yesterday: 57 °F

High & Low Weather Summary for the Past Weeks

 TemperatureHumidityPressure
High66 °F (May 27, 4:20 PM)100% (May 22, 2:50 AM)30.24 "Hg (May 22, 2:50 AM)
Low37 °F (May 15, 3:50 AM)38% (May 14, 4:20 PM)29.56 "Hg (May 18, 7:20 AM)
Average52 °F76%29.97 "Hg
* Reported May 13 11:20 AM — May 28 11:20 AM, Bolton, Weather by CustomWeather, © 2016

Note: Actual official high and low records may vary slightly from our data, if they occured in-between our weather recording intervals... More about our weather records

Advertising

Bolton Weather History for the Previous 24 Hours

Scroll right to see more
 ConditionsComfort  
Time TempWeatherWind HumidityBarometerVisibility
11:20 AM
Sat, May 28
61 °FPassing clouds.3 mph59%30.04 "HgN/A
10:50 AM59 °FPassing clouds.6 mph63%30.04 "HgN/A
10:20 AM59 °FPassing clouds.5 mph63%30.04 "HgN/A
9:50 AM59 °FSunny.3 mph63%30.04 "Hg10 mi
9:20 AM59 °FSunny.3 mph63%30.04 "Hg10 mi
8:50 AM55 °FPassing clouds.5 mph72%30.04 "HgN/A
8:20 AM55 °FPassing clouds.6 mph72%30.04 "HgN/A
7:50 AM54 °FPassing clouds.5 mph72%30.04 "HgN/A
7:20 AM52 °FSunny.2 mph82%30.04 "Hg10 mi
6:50 AM50 °FSunny.No wind88%30.07 "Hg10 mi
6:20 AM46 °FCool.2 mph93%30.04 "Hg4 mi
5:50 AM45 °FSunny.3 mph93%30.04 "Hg10 mi
5:20 AM43 °FClear.3 mph93%30.04 "Hg6 mi
4:50 AM45 °FHaze.No wind87%30.04 "Hg3 mi
4:20 AM45 °FClear.3 mph87%30.04 "Hg6 mi
3:50 AM46 °FClear.No wind87%30.04 "Hg10 mi
3:20 AM46 °FCool.2 mph87%30.07 "Hg5 mi
2:50 AM46 °FClear.6 mph87%30.07 "Hg5 mi
2:20 AM46 °FClear.6 mph87%30.07 "Hg6 mi
1:50 AM48 °FClear.5 mph87%30.07 "Hg10 mi
1:20 AM48 °FClear.6 mph87%30.07 "Hg10 mi
12:50 AM50 °FClear.3 mph82%30.07 "Hg10 mi
12:20 AM52 °FClear.3 mph82%30.07 "Hg10 mi
11:50 PM
Fri, May 27
52 °FCool.6 mph82%30.07 "HgN/A
11:20 PM52 °FClear.7 mph82%30.07 "Hg10 mi
10:50 PM54 °FClear.6 mph77%30.07 "Hg10 mi
10:20 PM54 °FSunny.6 mph82%30.07 "Hg10 mi
9:50 PM54 °FSunny.6 mph82%30.07 "Hg10 mi
9:20 PM55 °FSunny.8 mph77%30.07 "Hg10 mi
8:50 PM57 °FSunny.8 mph67%30.04 "Hg10 mi
8:20 PM59 °FScattered clouds.9 mph63%30.04 "HgN/A
7:50 PM61 °FScattered clouds.10 mph59%30.04 "HgN/A
7:20 PM63 °FSunny.6 mph56%30.04 "Hg10 mi
6:50 PM63 °FSunny.5 mph56%30.04 "Hg10 mi
6:20 PM63 °FSunny.6 mph52%30.04 "Hg10 mi
5:50 PM64 °FPassing clouds.5 mph49%30.04 "HgN/A
5:20 PM64 °FSunny.3 mph49%30.04 "Hg10 mi
4:50 PM64 °FScattered clouds.7 mph49%30.04 "HgN/A
4:20 PM66 °FSunny.3 mph46%30.04 "Hg10 mi
3:50 PM64 °FPassing clouds.5 mph46%30.04 "HgN/A
3:20 PM63 °FPartly sunny.3 mph49%30.07 "HgN/A
2:50 PM63 °FScattered clouds.2 mph49%30.07 "HgN/A
2:20 PM63 °FScattered clouds.6 mph52%30.07 "HgN/A
1:50 PM63 °FPartly sunny.2 mph49%30.07 "HgN/A
1:20 PM61 °FPartly sunny.3 mph55%30.07 "HgN/A
12:50 PM61 °FPartly sunny.5 mph55%30.07 "HgN/A
12:20 PM61 °FPartly sunny.5 mph55%30.07 "HgN/A
Weather by CustomWeather, © 2016

See weather overviewHow to use our weather pages